Regional Weather Roundup
Issued by NWS

Home | Current Version | Previous Version | Text Only | Print | Product List | Glossary On
Versions: 1 2 3 4 5 6 7 8 9 10 11 12 13 14 15 16 17 18 19 20 21 22 23 24 25 26 27 28 29 30 31 32 33 34 35 36 37 38 39 40 41 42 43 44 45 46 47 48 49 50
000
ASUS43 KMKX 020410
RWRWI

WISCONSIN REGIONAL WEATHER ROUNDUP
NATIONAL WEATHER SERVICE MILWAUKEE/SULLIVAN WI
1100 PM CDT WED APR 01 2015

NOTE: "FAIR" INDICATES FEW OR NO CLOUDS BELOW 12,000 FEET WITH NO
SIGNIFICANT WEATHER AND/OR OBSTRUCTIONS TO VISIBILITY.

WIZ001-002-006>008-014>016-023>028-020500-
NORTHWEST WISCONSIN

CITY           SKY/WX    TMP DP  RH WIND       PRES   REMARKS
SUPERIOR ARPT  MOCLDY    33  32  95 W3        29.49S
ASHLAND        CLOUDY    61  48  62 S30G46    29.43F
HAYWARD        CLOUDY    56  49  77 S15G25    29.50F
SIREN          CLOUDY    57  52  84 S8        29.51S
CUMBERLAND     LGT RAIN  54  50  87 SE8       29.53F
RICE LAKE      RAIN      56  51  82 SE22      29.53F
CHETEK         HVY RAIN  56  52  87 S9        29.59F
LADYSMITH      RAIN      61  44  54 W10G21    29.63R
EAU CLAIRE     TSTM      62  47  57 W15G25    29.61R
MENOMONIE      TSTM      58  54  84 W9        29.62R
NEW RICHMOND   RAIN      57  55  94 S9        29.55R
OSCEOLA        CLOUDY    57  57  99 S9        29.56R
$$

WIZ003>005-009-010-017-018-020500-
NORTH CENTRAL WISCONSIN

CITY           SKY/WX    TMP DP  RH WIND       PRES   REMARKS
MANITOWISH WTR RAIN      49  44  81 W3        29.60R
ARBOR VITAE    CLOUDY    48  40  74 S3        29.61S
WOODRUFF       CLOUDY    48  40  74 S3        29.61S
RHINELANDER    CLOUDY    53  37  54 N6        29.62R
EAGLE RIVER    CLOUDY    48  35  60 SE6       29.61F
LAND O LAKES   LGT RAIN  48  37  65 S9        29.60F
PHILLIPS       TSTM      58  39  48 SW8       29.61R
TOMAHAWK       CLOUDY    51  37  59 CALM      29.59F
MEDFORD        CLOUDY    61  37  40 S16       29.57F
MERRILL        CLOUDY    58  36  43 S10       29.58F
$$

WIZ029-030-035-036-043>047-020500-
CENTRAL WISCONSIN

CITY           SKY/WX    TMP DP  RH WIND       PRES   REMARKS
WAUSAU         MOCLDY    64  33  31 S14G24    29.59S
MOSINEE        PTCLDY    63  32  31 S18G26    29.62S
MARSHFIELD     MOCLDY    65  34  31 S22G28    29.60F
STEVENS POINT  PTCLDY    62  34  36 S16G24    29.63S
WAUPACA        CLEAR     66  33  30 S22G29    29.66R
WAUTOMA        CLEAR     65  35  32 S13       29.68R
WISC RAPIDS    PTCLDY    65  31  28 S17G25    29.64R
CAMP DOUGLAS   MOCLDY    66  34  30 S18G25    29.63R
$$

WIZ011>013-019>022-031-037>040-048>050-020500-
NORTHEAST WISCONSIN

CITY           SKY/WX    TMP DP  RH WIND       PRES   REMARKS
ANTIGO         MOCLDY    45  38  78 S10       29.63F
SHAWANO        MOCLDY    64  36  34 S9G18     29.65R
OCONTO         MOCLDY    57  39  50 S9G16     29.65R
STURGEON BAY   CLOUDY    48  37  66 S15G23    29.69F
GREEN BAY      PTCLDY    56  40  55 S15G22    29.66F
MANITOWOC      PTCLDY    48  38  68 S10       29.72S
APPLETON       PTCLDY    61  36  39 S17G25    29.69R
CLINTONVILLE   CLEAR     61  36  39 S18       29.64S
OSHKOSH        CLEAR     61  39  44 S20G31    29.68S
$$

WIZ032>034-041-042-053>061-020500-
SOUTHWEST WISCONSIN

CITY           SKY/WX    TMP DP  RH WIND       PRES   REMARKS
LA CROSSE      MOCLDY    68  36  30 S18       29.60R
SPARTA         PTCLDY    66  32  28 S14G23    29.63R
VIROQUA        MOCLDY    62  35  35 S16G26    29.65R
BOSCOBEL         N/A     67  35  30 S12G24    29.66S
PRAIRIE DU CHI PTCLDY    66  32  28 S14G25    29.65S
PLATTEVILLE    CLEAR     61  38  43 SE21      29.70F
$$

WIZ056-057-062-063-064-067-068-020500-
SOUTH CENTRAL WISCONSIN

CITY           SKY/WX    TMP DP  RH WIND       PRES   REMARKS
REEDSBURG      CLEAR     63  37  39 S18       29.67S
BARABOO/DELLS  CLEAR     63  33  32 S18G24    29.68S
LONE ROCK      CLEAR     64  36  35 S16G28    29.68S
MINERAL POINT  CLEAR     59  34  38 S15       29.70F
MADISON        CLEAR     61  38  42 S21       29.71F
MIDDLETON      CLEAR     63  34  34 S17G28    29.71F
WATERTOWN      CLEAR     59  40  49 S17G26    29.73F
MONROE         CLEAR     57  41  54 S17G24    29.74S
JANESVILLE     CLEAR     61  37  41 S17       29.75F
$$

WIZ051-052-058>065-066-070>072-020500-
SOUTHEAST WISCONSIN

CITY           SKY/WX    TMP DP  RH WIND       PRES   REMARKS
MILWAUKEE      PTCLDY    61  37  41 S17G24    29.77F
WAUKESHA       CLEAR     59  36  41 S12G22    29.77F
MILWAUKEE/TIMM PTCLDY    61  34  36 S16G23    29.76F
RACINE         CLEAR     61  37  41 S13       29.79F
BURLINGTON     CLEAR     58  37  46 S12G20    29.78F
KENOSHA        CLEAR     62  39  42 S18       29.79F
FOND DU LAC    CLEAR     62  39  42 S23G32    29.69F
SHEBOYGAN      CLEAR     53  38  56 S17       29.72F
WEST BEND      CLEAR     61  34  36 S15G30    29.73F
JUNEAU         CLEAR     59  39  47 S21G30    29.74F
$$

LSZ147-162-020500-
LAKE SUPERIOR

STATION/POSITION TIME  TEMP    WIND        PRES    WAVE
                       AIR SEA DIR/SP/G            HT/PER
                 (UTC) (F)     (DEG/KT/KT) (MB)    (FT/S)
DEVILS ISLAND    0400   38     320/  4/  5  997.7F
PORT WING        0300   34      20/  5/ 11  998.6R
SAXON HARBOR     0324   63     200/ 14/ 25  997.0F
$$

LMZ867-665-643>646-020500-
LAKE MICHIGAN

STATION/POSITION TIME  TEMP    WIND        PRES    WAVE
                       AIR SEA DIR/SP/G            HT/PER
                 (UTC) (F)     (DEG/KT/KT) (MB)    (FT/S)
NORTHPORT PIER   0402   43     160/ 12/ 20 1005.1F
SISTER BAY       0302   45     190/ 21/ 28   N/A
KEWAUNEE LAKESHO 0300   45     190/ 18/ 23 1005.5F
SHEBOYGAN LAKESH 0400   47     180/ 26/ 28 1006.7F
PORT WASHINGTON  0300   44     200/  8/ 11 1008.8F
MILWAUKEE LAKESH 0300          190/ 13/ 17   N/A
KENOSHA   LAKESH 0400   59     180/ 15/ 19 1008.8F
$$

TC  - TEMPERATURE IN CELSIUS
VSB - VISIBILITY IN STATUTE MILES
WCI - WIND CHILL INDEX
HX  - HEAT INDEX




USA.gov is the U.S. government's official web portal to all federal, state and local government web resources and services.